STARLINK-32434, 61913

Orbit data source: Space-Track

STARLINK-32434, 61913 is a payload satellite owned by SpaceX/Seattle (US) in LEO that was launched on Mon, 11 Nov 2024 UTC via an FALCON 9 launch vehicle from the Air Force Eastern Test Range (AFETR). Payload-class satellites include a variety of spacecraft equipped with specific instruments for various scientific and technological missions. These include communications satellites like Starlink; space stations such as the ISS; scientific satellites like the Hubble; Earth observation satellites from companies like Planet Labs, Umbra, and HawkEye 360; GPS; miniature CubeSats for education and research; and military/defense satellites.

Loading next visibility...
Identifier
61913, 2024-207B
Orbit
LEO
Country
Flag of USUS
Related business
Manufacturer
SpaceX/Seattle
Mission
Operational Commercial Communications
Bus & Motor
STARLINK V2M, Unknown motor
Mass
730 kg wet, ~700 kg dry
Launch date (UTC)
2024-11-11 (10 months ago)
Launch vehicle
FALCON 9
Launch site
Air Force Eastern Test Range (AFETR)
Object type
Payload
Rocket body
Debris
Shape & HBR
Box + 2 Pan, 14.5 m
Radar Cross Section
33.884 m², Large (>1 m²)

Expand to show TLE details & history
Last TLE update: 1 day ago

TLE from 1 day ago
0 STARLINK-32434
1 61913U 24207B   25261.16846279  .00023325  00000-0  85391-3 0  9998
2 61913  43.0005 176.3632 0001426 275.8968  84.1721 15.27600972 48330
Epoch: 2025-09-18T04:02Z
TLE epoch observation values (Epoch: 2025-09-18T04:02:35.185Z)
Latitude
-0.00001°
Longitude
118.38266°
Altitude
482.663 km
Speed
7.626 km/s
True Right ascension
11h 45m 27s
True Declination
0° 00' 00"
Sunlit
Object was in daylight at epoch
Visualization orbit readout
Latitude
Unknown
Longitude
Unknown
Altitude
Unknown
Speed
Unknown
Apparent Right ascension
Unknown
Apparent Declination
Unknown
Sunlit
N/A
Visualization observer readout
Local Sidereal Time
00:32:44
Azimuth
Unknown
Elevation
Unknown
Doppler factor
Unknown
Orbital elements
Apogee altitude
485.91 km
Perigee altitude
483.953 km
Semi-major axis
6,863.068 km
Eccentricity
0.00014
Inclination
43.0005°
RAAN
176.3632°
Arg. of periapsis
275.8968°
True anomaly
84.18836°
Mean anomaly
84.1721°
Eccentric anomaly
84.18023°
Mean motion
3.81738 °/min
Orbital period
94.31 mins
BSTAR
0.00085391
Loading maneuver chart data...
Computing Atmospheric mass density...
Loading historical data...
Loading historical data...
Loading historical data...
Loading historical data...
Loading historical data...
Loading historical data...
Loading historical data...

Documentation

Showing up to 5 results
|